Simultaneous Nadir Overpasses (SNOs) Predictions

Prediction of SNOs between FY3D and METOP-A Satellite Orbit:

Table of predicted SNOs for the next 14.0 days since TLE Epoch: 10/26/2019
Index Date (FY3D) Time (FY3D) Lat,Lon (FY3D) SZA (FY3D ) Date (METOP-A) Time (METOP-A) Lat,Lon (METOP-A) SZA (METOP-A ) Distance(km) Time Diff (sec)
1 10/26/2019 01:35:02 74.80, 144.31 87.14 10/26/2019 01:34:01 74.82, 144.33 87.18 2.80 61
2 10/26/2019 02:25:46 -74.79, -48.36 92.85 10/26/2019 02:24:43 -74.80, -48.41 92.84 1.60 63
3 10/26/2019 03:16:30 74.79, 118.96 87.16 10/26/2019 03:15:22 74.80, 118.94 87.18 1.57 68
4 10/26/2019 04:07:14 -74.79, -73.71 92.84 10/26/2019 04:06:04 -74.78, -73.80 92.83 2.53 70
5 10/26/2019 04:57:59 74.78, 93.61 87.18 10/26/2019 04:56:44 74.79, 93.55 87.19 1.72 75
6 10/26/2019 05:48:41 -74.68, -98.80 92.92 10/26/2019 05:47:27 -74.71, -99.32 92.86 15.46 74
7 10/26/2019 06:39:22 74.49, 69.04 86.88 10/26/2019 06:38:12 74.47, 67.39 86.94 49.14 70
8 10/26/2019 07:30:04 -74.39,-123.38 93.22 10/26/2019 07:28:55 -74.40,-125.47 93.12 62.30 69
9 10/26/2019 08:20:45 74.19, 44.44 86.58 10/26/2019 08:19:39 74.21, 41.38 86.73 92.72 66




NCC Satellite Simultaneous Nadir Overpasses (SNOs) Prediction Service
